STARLINK-30379, 57811

Orbit data source: Space-Track

STARLINK-30379, 57811 is a payload satellite owned by SpaceX/Seattle (US) in LEO that was launched on Sat, 09 Sep 2023 UTC via an FALCON 9 launch vehicle from the Air Force Eastern Test Range (AFETR). Payload-class satellites include a variety of spacecraft equipped with specific instruments for various scientific and technological missions. These include communications satellites like Starlink; space stations such as the ISS; scientific satellites like the Hubble; Earth observation satellites from companies like Planet Labs, Umbra, and HawkEye 360; GPS; miniature CubeSats for education and research; and military/defense satellites.

Loading next visibility...
Identifier
57811, 2023-138D
Orbit
LEO
Country
Flag of USUS
Related business
Manufacturer
SpaceX/Seattle
Mission
Operational Commercial Communications
Bus & Motor
STARLINK V2M, Unknown motor
Mass
730 kg wet, ~700 kg dry
Launch date (UTC)
2023-09-09 (3 years ago)
Launch vehicle
FALCON 9
Launch site
Air Force Eastern Test Range (AFETR)
Object type
Payload
Rocket body
Debris
Shape & HBR
Box + 2 Pan, 17.7 m
Radar Cross Section
33.884 m², Large (>1 m²)

Expand to show TLE details & history
Last TLE update: 3 days ago

TLE from 3 days ago
0 STARLINK-30379
1 57811U 23138D   26170.00498014  .00002028  00000-0  83219-4 0  9990
2 57811  43.0018  21.9690 0001573 276.9021  83.1652 15.27570103154231
Epoch: 2026-06-19T00:07Z
TLE epoch observation values (Epoch: 2026-06-19T00:07:10.284Z)
Latitude
0.00002°
Longitude
112.936°
Altitude
482.726 km
Speed
7.626 km/s
True Right ascension
01h 27m 52s
True Declination
0° 00' 00"
Sunlit
Object was in daylight at epoch
Visualization orbit readout
Latitude
Unknown
Longitude
Unknown
Altitude
Unknown
Speed
Unknown
Apparent Right ascension
Unknown
Apparent Declination
Unknown
Sunlit
N/A
Visualization observer readout
Local Sidereal Time
21:33:29
Azimuth
Unknown
Elevation
Unknown
Doppler factor
Unknown
Orbital elements
Apogee altitude
486.103 km
Perigee altitude
483.944 km
Semi-major axis
6,863.161 km
Eccentricity
0.00016
Inclination
43.0018°
RAAN
21.969°
Arg. of periapsis
276.9021°
True anomaly
83.1831°
Mean anomaly
83.1652°
Eccentric anomaly
83.17415°
Mean motion
3.81731 °/min
Orbital period
94.31 mins
BSTAR
0.000083219
Loading maneuver chart data...
Computing Atmospheric mass density...
Loading historical data...
Loading historical data...
Loading historical data...
Loading historical data...
Loading historical data...
Loading historical data...
Loading historical data...

Documentation

Showing up to 5 results
|